Time,TemperatureF,DewpointF,PressureIn,WindDirection,WindDirectionDegrees,WindSpeedMPH,WindSpeedGustMPH,Humidity,HourlyPrecipIn,Conditions,Clouds,dailyrainin,SolarRadiationWatts/m^2,SoftwareType,DateUTC
2013-07-27 00:26:00,73.6,60.0,29.94,WSW,246,0.0,0.0,62,0.00,,,0.00,0,weatherlink.com 1.10,2013-07-26 22:26:00,
2013-07-27 00:41:00,73.0,60.0,29.94,North,360,0.0,0.0,64,0.00,,,0.00,0,weatherlink.com 1.10,2013-07-26 22:41:00,
2013-07-27 00:56:00,72.3,60.0,29.94,WSW,247,0.0,1.0,65,0.00,,,0.00,0,weatherlink.com 1.10,2013-07-26 22:56:00,
2013-07-27 01:11:00,71.8,60.0,29.94,WSW,247,0.0,1.0,66,0.00,,,0.00,0,weatherlink.com 1.10,2013-07-26 23:11:00,
2013-07-27 01:26:00,71.5,60.0,29.94,WSW,247,0.0,0.0,67,0.00,,,0.00,0,weatherlink.com 1.10,2013-07-26 23:26:00,
2013-07-27 01:41:00,71.1,60.0,29.94,WSW,249,0.0,0.0,69,0.00,,,0.00,0,weatherlink.com 1.10,2013-07-26 23:41:00,
2013-07-27 01:56:00,70.6,60.0,29.94,WSW,247,0.0,0.0,69,0.00,,,0.00,0,weatherlink.com 1.10,2013-07-26 23:56:00,
2013-07-27 02:11:00,70.0,60.0,29.94,WSW,247,0.0,1.0,70,0.00,,,0.00,0,weatherlink.com 1.10,2013-07-27 00:11:00,
2013-07-27 02:26:00,69.6,60.0,29.94,North,360,0.0,0.0,72,0.00,,,0.00,0,weatherlink.com 1.10,2013-07-27 00:26:00,
2013-07-27 02:56:00,69.2,60.0,29.93,WSW,247,0.0,0.0,72,0.00,,,0.00,0,weatherlink.com 1.10,2013-07-27 00:56:00,
2013-07-27 03:11:00,68.8,60.0,29.93,WSW,247,0.0,0.0,73,0.00,,,0.00,0,weatherlink.com 1.10,2013-07-27 01:11:00,
2013-07-27 03:26:00,68.6,60.0,29.93,WSW,247,0.0,0.0,73,0.00,,,0.00,0,weatherlink.com 1.10,2013-07-27 01:26:00,
2013-07-27 03:41:00,68.3,60.0,29.93,WSW,246,0.0,0.0,74,0.00,,,0.00,0,weatherlink.com 1.10,2013-07-27 01:41:00,
2013-07-27 03:56:00,68.0,60.0,29.92,North,360,0.0,0.0,75,0.00,,,0.00,0,weatherlink.com 1.10,2013-07-27 01:56:00,
2013-07-27 04:11:00,67.7,60.0,29.92,WSW,247,0.0,0.0,75,0.00,,,0.00,0,weatherlink.com 1.10,2013-07-27 02:11:00,
2013-07-27 04:26:00,67.4,60.0,29.93,North,360,0.0,0.0,76,0.00,,,0.00,0,weatherlink.com 1.10,2013-07-27 02:26:00,
2013-07-27 04:41:00,67.2,59.0,29.93,WSW,245,0.0,0.0,76,0.00,,,0.00,0,weatherlink.com 1.10,2013-07-27 02:41:00,
2013-07-27 04:56:00,67.1,59.0,29.93,WSW,247,0.0,0.0,76,0.00,,,0.00,0,weatherlink.com 1.10,2013-07-27 02:56:00,
2013-07-27 05:11:00,66.9,59.0,29.94,WSW,247,0.0,0.0,77,0.00,,,0.00,0,weatherlink.com 1.10,2013-07-27 03:11:00,
2013-07-27 05:41:00,66.6,60.0,29.94,WSW,247,0.0,0.0,79,0.00,,,0.00,14,weatherlink.com 1.10,2013-07-27 03:41:00,
2013-07-27 05:56:00,67.1,60.0,29.94,WSW,246,0.0,0.0,79,0.00,,,0.00,33,weatherlink.com 1.10,2013-07-27 03:56:00,
2013-07-27 06:11:00,68.3,62.0,29.94,North,360,0.0,0.0,80,0.00,,,0.00,60,weatherlink.com 1.10,2013-07-27 04:11:00,
2013-07-27 06:41:00,72.8,63.0,29.94,WSW,247,0.0,0.0,71,0.00,,,0.00,137,weatherlink.com 1.10,2013-07-27 04:41:00,
2013-07-27 06:56:00,74.6,63.0,29.94,West,269,0.0,0.0,67,0.00,,,0.00,176,weatherlink.com 1.10,2013-07-27 04:56:00,
2013-07-27 07:12:00,77.0,63.0,29.95,North,355,2.0,4.0,63,0.00,,,0.00,227,weatherlink.com 1.10,2013-07-27 05:12:00,
2013-07-27 07:27:00,78.9,62.0,29.94,North,355,2.0,5.0,57,0.00,,,0.00,285,weatherlink.com 1.10,2013-07-27 05:27:00,
2013-07-27 07:42:00,80.1,63.0,29.94,North,355,0.0,4.0,56,0.00,,,0.00,325,weatherlink.com 1.10,2013-07-27 05:42:00,
2013-07-27 07:58:00,79.6,62.0,29.95,North,5,2.0,5.0,56,0.00,,,0.00,156,weatherlink.com 1.10,2013-07-27 05:58:00,
2013-07-27 08:12:00,81.6,64.0,29.95,North,355,0.0,5.0,55,0.00,,,0.00,399,weatherlink.com 1.10,2013-07-27 06:12:00,
2013-07-27 08:27:00,82.5,64.0,29.95,North,360,0.0,2.0,53,0.00,,,0.00,434,weatherlink.com 1.10,2013-07-27 06:27:00,
2013-07-27 08:42:00,81.9,64.0,29.95,NNE,17,2.0,4.0,54,0.00,,,0.00,482,weatherlink.com 1.10,2013-07-27 06:42:00,
2013-07-27 08:57:00,84.4,64.0,29.95,North,360,0.0,3.0,50,0.00,,,0.00,445,weatherlink.com 1.10,2013-07-27 06:57:00,
2013-07-27 09:12:00,82.8,63.0,29.95,North,11,1.0,3.0,51,0.00,,,0.00,529,weatherlink.com 1.10,2013-07-27 07:12:00,
2013-07-27 09:27:00,84.1,63.0,29.95,NNE,33,0.0,4.0,49,0.00,,,0.00,564,weatherlink.com 1.10,2013-07-27 07:27:00,
2013-07-27 09:42:00,85.1,64.0,29.94,SSE,161,1.0,6.0,49,0.00,,,0.00,594,weatherlink.com 1.10,2013-07-27 07:42:00,
2013-07-27 09:57:00,88.7,66.0,29.95,North,5,2.0,5.0,47,0.00,,,0.00,628,weatherlink.com 1.10,2013-07-27 07:57:00,
2013-07-27 10:12:00,87.3,64.0,29.94,SSW,196,1.0,5.0,46,0.00,,,0.00,659,weatherlink.com 1.10,2013-07-27 08:12:00,
2013-07-27 10:27:00,90.1,64.0,29.94,ENE,71,1.0,5.0,42,0.00,,,0.00,689,weatherlink.com 1.10,2013-07-27 08:27:00,
2013-07-27 10:42:00,88.7,63.0,29.94,ENE,78,2.0,5.0,43,0.00,,,0.00,707,weatherlink.com 1.10,2013-07-27 08:42:00,
2013-07-27 10:57:00,89.4,64.0,29.94,North,360,2.0,6.0,43,0.00,,,0.00,721,weatherlink.com 1.10,2013-07-27 08:57:00,
2013-07-27 11:12:00,89.8,64.0,29.94,North,360,3.0,5.0,42,0.00,,,0.00,745,weatherlink.com 1.10,2013-07-27 09:12:00,
2013-07-27 11:27:00,91.5,63.0,29.93,South,177,0.0,7.0,39,0.00,,,0.00,793,weatherlink.com 1.10,2013-07-27 09:27:00,
2013-07-27 11:42:00,90.6,63.0,29.93,ESE,116,4.0,8.0,40,0.00,,,0.00,795,weatherlink.com 1.10,2013-07-27 09:42:00,
2013-07-27 11:57:00,90.4,64.0,29.92,SW,234,2.0,8.0,42,0.00,,,0.00,826,weatherlink.com 1.10,2013-07-27 09:57:00,
2013-07-27 12:13:00,94.3,63.0,29.92,WSW,244,7.0,10.0,36,0.00,,,0.00,819,weatherlink.com 1.10,2013-07-27 10:13:00,
2013-07-27 12:28:00,92.6,63.0,29.92,South,176,5.0,7.0,38,0.00,,,0.00,838,weatherlink.com 1.10,2013-07-27 10:28:00,
2013-07-27 12:43:00,92.2,63.0,29.92,North,360,2.0,8.0,38,0.00,,,0.00,726,weatherlink.com 1.10,2013-07-27 10:43:00,
2013-07-27 12:58:00,91.1,62.0,29.91,South,187,2.0,7.0,38,0.00,,,0.00,854,weatherlink.com 1.10,2013-07-27 10:58:00,
2013-07-27 13:13:00,92.4,64.0,29.91,SE,124,5.0,8.0,39,0.00,,,0.00,738,weatherlink.com 1.10,2013-07-27 11:13:00,
2013-07-27 13:28:00,90.8,63.0,29.91,SW,215,0.0,7.0,40,0.00,,,0.00,214,weatherlink.com 1.10,2013-07-27 11:28:00,
2013-07-27 13:43:00,89.8,62.0,29.90,South,173,0.0,6.0,40,0.00,,,0.00,257,weatherlink.com 1.10,2013-07-27 11:43:00,
2013-07-27 13:58:00,91.9,63.0,29.90,SSE,150,5.0,9.0,38,0.00,,,0.00,793,weatherlink.com 1.10,2013-07-27 11:58:00,
2013-07-27 14:13:00,93.0,63.0,29.90,SSW,202,7.0,7.0,37,0.00,,,0.00,810,weatherlink.com 1.10,2013-07-27 12:13:00,
2013-07-27 14:28:00,94.3,63.0,29.90,SW,219,7.0,11.0,36,0.00,,,0.00,213,weatherlink.com 1.10,2013-07-27 12:28:00,
2013-07-27 14:43:00,93.1,63.0,29.90,WSW,246,2.0,10.0,37,0.00,,,0.00,719,weatherlink.com 1.10,2013-07-27 12:43:00,
2013-07-27 14:58:00,93.5,64.0,29.89,SW,217,1.0,8.0,37,0.00,,,0.00,649,weatherlink.com 1.10,2013-07-27 12:58:00,
2013-07-27 15:13:00,93.5,63.0,29.89,WSW,240,0.0,6.0,36,0.00,,,0.00,719,weatherlink.com 1.10,2013-07-27 13:13:00,
2013-07-27 15:28:00,92.5,63.0,29.89,SW,226,0.0,7.0,37,0.00,,,0.00,162,weatherlink.com 1.10,2013-07-27 13:28:00,
2013-07-27 15:43:00,90.9,63.0,29.89,South,174,3.0,8.0,39,0.00,,,0.00,148,weatherlink.com 1.10,2013-07-27 13:43:00,
2013-07-27 15:58:00,91.2,62.0,29.89,East,92,2.0,4.0,38,0.00,,,0.00,185,weatherlink.com 1.10,2013-07-27 13:58:00,
2013-07-27 16:13:00,91.4,62.0,29.89,SSW,202,2.0,3.0,38,0.00,,,0.00,113,weatherlink.com 1.10,2013-07-27 14:13:00,
2013-07-27 16:28:00,92.0,63.0,29.88,SW,223,1.0,4.0,38,0.00,,,0.00,214,weatherlink.com 1.10,2013-07-27 14:28:00,
2013-07-27 16:43:00,91.3,62.0,29.88,SSW,202,1.0,5.0,38,0.00,,,0.00,102,weatherlink.com 1.10,2013-07-27 14:43:00,
2013-07-27 16:58:00,91.4,62.0,29.88,SSE,159,0.0,2.0,38,0.00,,,0.00,102,weatherlink.com 1.10,2013-07-27 14:58:00,
2013-07-27 17:13:00,91.6,63.0,29.89,SW,226,1.0,3.0,39,0.00,,,0.00,70,weatherlink.com 1.10,2013-07-27 15:13:00,
2013-07-27 17:59:00,91.1,63.0,29.88,SW,220,0.0,2.0,39,0.00,,,0.00,91,weatherlink.com 1.10,2013-07-27 15:59:00,
2013-07-27 18:14:00,91.5,63.0,29.88,South,190,1.0,4.0,39,0.00,,,0.00,98,weatherlink.com 1.10,2013-07-27 16:14:00,
2013-07-27 18:29:00,91.3,64.0,29.88,SW,232,1.0,8.0,40,0.00,,,0.00,100,weatherlink.com 1.10,2013-07-27 16:29:00,
2013-07-27 18:44:00,90.9,64.0,29.88,SW,227,0.0,7.0,41,0.00,,,0.00,49,weatherlink.com 1.10,2013-07-27 16:44:00,
2013-07-27 18:59:00,90.4,64.0,29.88,WSW,239,0.0,2.0,42,0.00,,,0.00,39,weatherlink.com 1.10,2013-07-27 16:59:00,
2013-07-27 19:14:00,89.4,65.0,29.88,SW,234,0.0,5.0,45,0.00,,,0.00,28,weatherlink.com 1.10,2013-07-27 17:14:00,
2013-07-27 19:29:00,88.2,66.0,29.88,North,360,0.0,1.0,48,0.00,,,0.00,23,weatherlink.com 1.10,2013-07-27 17:29:00,
2013-07-27 19:44:00,86.1,66.0,29.88,SW,235,0.0,1.0,51,0.00,,,0.00,18,weatherlink.com 1.10,2013-07-27 17:44:00,
2013-07-27 19:59:00,84.1,66.0,29.88,SW,234,0.0,1.0,54,0.00,,,0.00,11,weatherlink.com 1.10,2013-07-27 17:59:00,
2013-07-27 20:14:00,83.0,65.0,29.88,North,360,1.0,1.0,55,0.00,,,0.00,5,weatherlink.com 1.10,2013-07-27 18:14:00,
2013-07-27 20:29:00,82.7,64.0,29.88,SW,234,0.0,2.0,54,0.00,,,0.00,0,weatherlink.com 1.10,2013-07-27 18:29:00,
2013-07-27 20:44:00,82.8,64.0,29.88,WSW,239,0.0,3.0,53,0.00,,,0.00,0,weatherlink.com 1.10,2013-07-27 18:44:00,
2013-07-27 20:59:00,83.1,64.0,29.89,WSW,237,0.0,3.0,52,0.00,,,0.00,0,weatherlink.com 1.10,2013-07-27 18:59:00,
2013-07-27 22:29:00,81.5,64.0,29.89,WSW,241,0.0,1.0,55,0.00,,,0.00,0,weatherlink.com 1.10,2013-07-27 20:29:00,
2013-07-27 22:44:00,81.3,64.0,29.90,WSW,241,0.0,1.0,56,0.00,,,0.00,0,weatherlink.com 1.10,2013-07-27 20:44:00,
2013-07-27 22:59:00,81.0,64.0,29.89,North,360,0.0,0.0,57,0.00,,,0.00,0,weatherlink.com 1.10,2013-07-27 20:59:00,
2013-07-27 23:14:00,80.5,64.0,29.90,WSW,241,0.0,0.0,58,0.00,,,0.00,0,weatherlink.com 1.10,2013-07-27 21:14:00,
2013-07-27 23:29:00,79.9,65.0,29.91,WSW,243,0.0,0.0,60,0.00,,,0.00,0,weatherlink.com 1.10,2013-07-27 21:29:00,
2013-07-27 23:44:00,79.0,65.0,29.91,WSW,242,0.0,0.0,62,0.00,,,0.00,0,weatherlink.com 1.10,2013-07-27 21:44:00,
2013-07-27 23:59:00,78.0,64.0,29.91,WSW,242,0.0,1.0,63,0.00,,,0.00,0,weatherlink.com 1.10,2013-07-27 21:59:00,